Location: Home
(42.5358°N, 72.7383°W)
Time: 06:48:53
(UTC-05:00)

Courier 1B Rocket - Pass Details

Date: 03 December 2021
Orbit: 920 x 1202 km, 28.2° (Epoch: 25 January)

Event Time Altitude Azimuth Distance (km) Brightness Sun altitude
Rises 00:35:43 0° 242° (WSW) 3,569 - -66.6°
Reaches altitude 10° 00:38:57 10° 227° (SW) 2,609 - -66.3°
Maximum altitude 00:43:31 21° 180° (S) 1,913 - -65.8°
Drops below altitude 10° 00:48:05 10° 132° (SE) 2,617 - -65.2°
Sets 00:51:20 0° 117° (ESE) 3,583 - -64.8°
